User: anonymous   Login
Location: Peebles
(55.6412°N, 3.1714°W)
Time: 17:45:51
(UTC+00:00)
Language:

NOAA 16 DEB - Orbit

View from above orbital plane
View from above orbital plane
View from above satellite
View from above satellite

Ground track
Ground track

The orbit data is extracted from the following two-line orbital elements,

1 42400U 00055SU  22331.88482629  .00001762  00000-0  95823-3 0  9994
2 42400  98.7200  24.2663 0026225 175.2103 184.9325 14.13375861342591
Epoch (UTC): 27 November 2022 21:14:08
Eccentricity: 0.0026225
inclination: 98.7200°
perigee height: 829 km
apogee height: 867 km
right ascension of ascending node: 24.2663°
argument of perigee: 175.2103°
revolutions per day: 14.13375861
mean anomaly at epoch: 184.9325°
orbit number at epoch: 34259

The dashed part of the orbit path shows where the satellite is in the earth's shadow,  

DLR